Вернуться в каталог

AISSAT 2

АктивенНаукаPO
NORAD 40075·PAYLOAD·🇳🇴 Norway

Запущен Jul 8, 2014 с Baikonur Cosmodrome

Loading…

Ближайшие Пролёты (ближайшие 24 часа)

TLE

СвежийSource: Space-Track

Эпоха: Sep 13, 2026, 22:20 UTC

1 40075U 14037G   26256.93107850  .00001303  00000-0  12889-3 0  9993
2 40075  98.4151 236.1455 0004231 348.1765  11.9353 14.93849629659991

Отслеживайте AISSAT 2 в реальном времени с AllMySat

Download on the App Store